Location: Altleiningen
(49.5078°N, 8.0741°E)
Time: 00:06:18
(UTC+00:00)

Cosmos 1980 Rocket - Pass Details

Date: 03 March 2021
Orbit: 828 x 851 km, 71.0° (Epoch: 13 April)

Event Time Altitude Azimuth Distance (km) Brightness Sun altitude
Rises 18:54:32 0° 255° (WSW) 3,399 6.6 -17.1°
Reaches altitude 10° 18:57:33 10° 271° (W) 2,471 5.9 -17.6°
Maximum altitude 19:01:52 22° 321° (NW) 1,791 4.5 -18.2°
Drops below altitude 10° 19:06:13 10° 10° (N) 2,488 4.7 -18.9°
Sets 19:09:17 0° 26° (NNE) 3,429 5.2 -19.4°
